This demonstration page uses our WeatherBlox Daily Observations layout. Learn more.

Left ArrowRight Arrow

Hourly Observations for January 10, 2016

Temp ( °F °C ) Dew Point ( °F °C ) Humidity (%) Winds ( mph kmh ) Pressure ( in mb ) Visibility ( mi km ) Precip ( " mm )
12:53 am 00:53 Clear 30 -1.1 25 -3.9 82 82 E 6 9 30.18 1022 10 16 0.00 0.00
1:53 am 01:53 Clear 29 -1.7 24 -4.4 82 82 ENE 3 6 30.18 1022 10 16 0.00 0.00
2:53 am 02:53 Clear 26 -3.3 23 -5 88 88 ENE 3 6 30.18 1022 10 16 0.00 0.00
3:53 am 03:53 Clear 26 -3.3 22 -5.6 84 84 ENE 5 7 30.18 1022 10 16 0.00 0.00
4:53 am 04:53 Clear 25 -3.9 22 -5.6 88 88 NE 5 7 30.18 1022 10 16 0.00 0.00
5:53 am 05:53 Clear 24 -4.4 21 -6.1 88 88 NE 5 7 30.18 1022 10 16 0.00 0.00
6:53 am 06:53 Clear 23 -5 20 -6.7 88 88 N 3 6 30.20 1023 10 16 0.00 0.00
7:53 am 07:53 Clear 23 -5 19 -7.2 85 85 N 3 6 30.23 1024 10 16 0.00 0.00
8:53 am 08:53 Sunny 28 -2.2 23 -5 81 81 Calm 30.24 1024 10 16 0.00 0.00
9:53 am 09:53 Sunny 33 0.6 26 -3.3 75 75 ESE 9 15 30.24 1024 10 16 0.00 0.00
10:53 am 10:53 Sunny 37 2.8 27 -2.8 67 67 SE 9 15 30.24 1024 10 16 0.00 0.00
11:53 am 11:53 Sunny 40 4.4 28 -2.2 63 63 SE 10 17 30.20 1023 10 16 0.00 0.00
12:53 pm 12:53 Sunny 43 6.1 28 -2.2 56 56 SE 9 15 30.15 1021 10 16 0.00 0.00
1:53 pm 13:53 Sunny 47 8.3 29 -1.7 50 50 ESE 10 17 30.10 1019 10 16 0.00 0.00
2:53 pm 14:53 Sunny 49 9.4 28 -2.2 44 44 S 7 11 30.07 1018 10 16 0.00 0.00
3:53 pm 15:53 Sunny 48 8.9 28 -2.2 46 46 SE 8 13 30.07 1018 10 16 0.00 0.00
4:53 pm 16:53 Mostly Sunny 50 10 29 -1.7 44 44 ESE 9 15 30.06 1018 10 16 0.00 0.00
5:53 pm 17:53 Sunny 46 7.8 28 -2.2 50 50 SE 8 13 30.08 1019 10 16 0.00 0.00
6:53 pm 18:53 Clear 44 6.7 29 -1.7 55 55 ESE 6 9 30.10 1019 10 16 0.00 0.00
7:53 pm 19:53 Clear 41 5 29 -1.7 62 62 SE 8 13 30.10 1019 10 16 0.00 0.00
8:53 pm 20:53 Partly Cloudy 40 4.4 29 -1.7 65 65 ESE 8 13 30.10 1019 10 16 0.00 0.00
9:53 pm 21:53 Clear 40 4.4 29 -1.7 65 65 SE 10 17 30.09 1019 10 16 0.00 0.00
10:53 pm 22:53 Clear 40 4.4 29 -1.7 65 65 SE 10 17 30.09 1019 10 16 0.00 0.00
11:53 pm 23:53 Clear 40 4.4 30 -1.1 68 68 SE 10 17 30.09 1019 10 16 0.00 0.00

Powered by AerisWeather